Time,TemperatureF,DewpointF,PressureIn,WindDirection,WindDirectionDegrees,WindSpeedMPH,WindSpeedGustMPH,Humidity,HourlyPrecipIn,Conditions,Clouds,dailyrainin,SoftwareType,DateUTC
2013-01-02 00:02:00,49.8,44.2,30.12,North,355,6.0,6.0,81,0.00,,,0.08,Wunderground v.1.13,2013-01-02 06:02:00,
2013-01-02 00:12:00,49.8,44.2,30.12,North,360,5.0,5.0,81,0.00,,,0.00,Wunderground v.1.13,2013-01-02 06:12:00,
2013-01-02 00:22:00,49.8,44.2,30.11,North,350,5.0,7.0,81,0.00,,,0.00,Wunderground v.1.13,2013-01-02 06:22:00,
2013-01-02 00:32:00,49.7,44.4,30.11,North,9,5.0,5.0,82,0.00,,,0.00,Wunderground v.1.13,2013-01-02 06:32:00,
2013-01-02 00:42:00,49.6,44.0,30.11,NNE,19,5.0,5.0,81,0.00,,,0.00,Wunderground v.1.13,2013-01-02 06:42:00,
2013-01-02 00:52:00,49.5,43.9,30.12,NNE,19,4.0,5.0,81,0.00,,,0.00,Wunderground v.1.13,2013-01-02 06:52:00,
2013-01-02 01:02:00,49.5,43.9,30.14,North,355,6.0,6.0,81,0.00,,,0.00,Wunderground v.1.13,2013-01-02 07:02:00,
2013-01-02 01:12:00,49.4,43.8,30.13,North,355,6.0,6.0,81,0.00,,,0.00,Wunderground v.1.13,2013-01-02 07:12:00,
2013-01-02 01:22:00,49.2,43.6,30.13,North,355,7.0,7.0,81,0.00,,,0.00,Wunderground v.1.13,2013-01-02 07:22:00,
2013-01-02 01:32:00,49.1,43.5,30.13,North,32767,6.0,6.0,81,0.00,,,0.00,Wunderground v.1.13,2013-01-02 07:32:00,
2013-01-02 01:42:00,49.0,43.4,30.14,North,355,5.0,9.0,81,0.00,,,0.00,Wunderground v.1.13,2013-01-02 07:42:00,
2013-01-02 01:52:00,48.8,43.2,30.14,North,10,6.0,7.0,81,0.00,,,0.00,Wunderground v.1.13,2013-01-02 07:52:00,
2013-01-02 02:02:00,48.7,43.1,30.14,North,10,6.0,6.0,81,0.00,,,0.00,Wunderground v.1.13,2013-01-02 08:02:00,
2013-01-02 02:12:00,48.7,43.1,30.15,North,5,5.0,5.0,81,0.00,,,0.00,Wunderground v.1.13,2013-01-02 08:12:00,
2013-01-02 02:22:00,48.3,42.7,30.15,North,360,5.0,5.0,81,0.00,,,0.00,Wunderground v.1.13,2013-01-02 08:22:00,
2013-01-02 02:32:00,48.1,42.9,30.15,North,11,5.0,6.0,82,0.00,,,0.00,Wunderground v.1.13,2013-01-02 08:32:00,
2013-01-02 02:42:00,48.0,42.8,30.16,NNE,27,6.0,6.0,82,0.00,,,0.00,Wunderground v.1.13,2013-01-02 08:42:00,
2013-01-02 02:52:00,48.0,42.4,30.15,North,32767,5.0,5.0,81,0.00,,,0.00,Wunderground v.1.13,2013-01-02 08:52:00,
2013-01-02 03:02:00,48.1,42.5,30.15,North,360,6.0,6.0,81,0.00,,,0.00,Wunderground v.1.13,2013-01-02 09:02:00,
2013-01-02 03:12:00,48.1,42.2,30.16,North,10,6.0,6.0,80,0.00,,,0.00,Wunderground v.1.13,2013-01-02 09:12:00,
2013-01-02 03:22:00,48.1,42.2,30.16,NNW,345,6.0,9.0,80,0.00,,,0.00,Wunderground v.1.13,2013-01-02 09:22:00,
2013-01-02 03:37:00,47.9,41.7,30.15,NNW,348,7.0,8.0,79,0.00,,,0.00,Wunderground v.1.13,2013-01-02 09:37:00,
2013-01-02 03:42:00,47.9,42.0,30.15,North,5,7.0,7.0,80,0.00,,,0.00,Wunderground v.1.13,2013-01-02 09:42:00,
2013-01-02 03:52:00,47.8,41.9,30.15,NNE,21,6.0,6.0,80,0.00,,,0.00,Wunderground v.1.13,2013-01-02 09:52:00,
2013-01-02 04:02:00,47.6,41.4,30.13,North,9,8.0,9.0,79,0.00,,,0.00,Wunderground v.1.13,2013-01-02 10:02:00,
2013-01-02 04:12:00,47.5,41.3,30.16,NNW,347,6.0,8.0,79,0.00,,,0.00,Wunderground v.1.13,2013-01-02 10:12:00,
2013-01-02 04:22:00,47.4,40.9,30.16,NNE,16,7.0,7.0,78,0.00,,,0.00,Wunderground v.1.13,2013-01-02 10:22:00,
2013-01-02 04:32:00,47.2,40.7,30.16,North,5,8.0,8.0,78,0.00,,,0.00,Wunderground v.1.13,2013-01-02 10:32:00,
2013-01-02 04:47:00,47.1,40.9,30.16,North,5,5.0,5.0,79,0.00,,,0.00,Wunderground v.1.13,2013-01-02 10:47:00,
2013-01-02 04:52:00,47.1,40.9,30.16,North,349,5.0,5.0,79,0.00,,,0.00,Wunderground v.1.13,2013-01-02 10:52:00,
2013-01-02 05:02:00,46.8,40.6,30.17,North,355,5.0,7.0,79,0.00,,,0.00,Wunderground v.1.13,2013-01-02 11:02:00,
2013-01-02 05:12:00,46.4,39.6,30.18,North,360,7.0,8.0,77,0.00,,,0.00,Wunderground v.1.13,2013-01-02 11:12:00,
2013-01-02 05:22:00,46.3,39.1,30.18,North,360,7.0,7.0,76,0.00,,,0.00,Wunderground v.1.13,2013-01-02 11:22:00,
2013-01-02 05:32:00,46.1,38.6,30.18,NNE,12,7.0,7.0,75,0.00,,,0.00,Wunderground v.1.13,2013-01-02 11:32:00,
2013-01-02 05:42:00,45.9,38.4,30.18,NNE,16,7.0,7.0,75,0.00,,,0.00,Wunderground v.1.13,2013-01-02 11:42:00,
2013-01-02 05:52:00,45.8,38.7,30.18,North,360,6.0,6.0,76,0.00,,,0.00,Wunderground v.1.13,2013-01-02 11:52:00,
2013-01-02 06:07:00,45.5,39.0,30.18,NNE,19,5.0,6.0,78,0.00,,,0.00,Wunderground v.1.13,2013-01-02 12:07:00,
2013-01-02 06:12:00,45.1,39.0,30.18,North,32767,5.0,5.0,79,0.00,,,0.00,Wunderground v.1.13,2013-01-02 12:12:00,
2013-01-02 06:22:00,44.8,39.0,30.18,North,360,5.0,6.0,80,0.00,,,0.00,Wunderground v.1.13,2013-01-02 12:22:00,
2013-01-02 06:32:00,44.6,39.1,30.19,North,360,3.0,3.0,81,0.00,,,0.00,Wunderground v.1.13,2013-01-02 12:32:00,
2013-01-02 06:42:00,44.6,38.5,30.20,North,355,6.0,6.0,79,0.00,,,0.00,Wunderground v.1.13,2013-01-02 12:42:00,
2013-01-02 06:52:00,44.6,38.2,30.20,North,355,6.0,6.0,78,0.00,,,0.00,Wunderground v.1.13,2013-01-02 12:52:00,
2013-01-02 07:02:00,44.5,38.4,30.20,North,32767,1.0,1.0,79,0.00,,,0.00,Wunderground v.1.13,2013-01-02 13:02:00,
2013-01-02 07:12:00,44.1,38.3,30.20,NNE,17,4.0,4.0,80,0.00,,,0.00,Wunderground v.1.13,2013-01-02 13:12:00,
2013-01-02 07:22:00,43.7,37.9,30.20,North,355,6.0,6.0,80,0.00,,,0.00,Wunderground v.1.13,2013-01-02 13:22:00,
2013-01-02 07:32:00,43.3,38.2,30.21,NNW,334,5.0,9.0,82,0.00,,,0.01,Wunderground v.1.13,2013-01-02 13:32:00,
2013-01-02 07:42:00,43.0,37.9,30.22,North,351,6.0,12.0,82,0.00,,,0.01,Wunderground v.1.13,2013-01-02 13:42:00,
2013-01-02 07:52:00,42.9,38.1,30.21,North,355,5.0,9.0,83,0.00,,,0.01,Wunderground v.1.13,2013-01-02 13:52:00,
2013-01-02 08:02:00,42.4,37.6,30.21,North,350,5.0,6.0,83,0.00,,,0.01,Wunderground v.1.13,2013-01-02 14:02:00,
2013-01-02 08:12:00,42.1,37.3,30.21,North,355,6.0,6.0,83,0.00,,,0.01,Wunderground v.1.13,2013-01-02 14:12:00,
2013-01-02 08:22:00,42.0,37.5,30.21,North,355,6.0,8.0,84,0.00,,,0.02,Wunderground v.1.13,2013-01-02 14:22:00,
2013-01-02 08:32:00,41.6,37.1,30.21,North,350,7.0,7.0,84,0.00,,,0.02,Wunderground v.1.13,2013-01-02 14:32:00,
2013-01-02 08:42:00,41.4,36.9,30.23,North,5,6.0,6.0,84,0.00,,,0.03,Wunderground v.1.13,2013-01-02 14:42:00,
2013-01-02 08:52:00,41.3,36.8,30.24,North,360,4.0,5.0,84,0.00,,,0.03,Wunderground v.1.13,2013-01-02 14:52:00,
2013-01-02 09:02:00,41.5,37.0,30.24,North,355,4.0,4.0,84,0.00,,,0.03,Wunderground v.1.13,2013-01-02 15:02:00,
2013-01-02 09:12:00,41.5,37.3,30.25,North,355,4.0,5.0,85,0.00,,,0.03,Wunderground v.1.13,2013-01-02 15:12:00,
2013-01-02 09:23:00,41.5,37.0,30.26,North,360,5.0,5.0,84,0.00,,,0.04,Wunderground v.1.13,2013-01-02 15:23:00,
2013-01-02 09:32:00,41.3,36.8,30.25,North,350,4.0,4.0,84,0.00,,,0.04,Wunderground v.1.13,2013-01-02 15:32:00,
2013-01-02 09:42:00,41.2,37.0,30.26,North,32767,5.0,5.0,85,0.00,,,0.04,Wunderground v.1.13,2013-01-02 15:42:00,
2013-01-02 09:52:00,41.2,37.0,30.26,North,360,5.0,5.0,85,0.00,,,0.05,Wunderground v.1.13,2013-01-02 15:52:00,
2013-01-02 10:02:00,41.3,37.1,30.27,North,355,5.0,5.0,85,0.00,,,0.05,Wunderground v.1.13,2013-01-02 16:02:00,
2013-01-02 10:12:00,41.4,37.2,30.28,North,350,5.0,5.0,85,0.00,,,0.05,Wunderground v.1.13,2013-01-02 16:12:00,
2013-01-02 10:22:00,41.4,37.2,30.28,North,355,5.0,5.0,85,0.00,,,0.05,Wunderground v.1.13,2013-01-02 16:22:00,
2013-01-02 10:32:00,41.5,37.3,30.27,North,5,6.0,7.0,85,0.00,,,0.06,Wunderground v.1.13,2013-01-02 16:32:00,
2013-01-02 10:42:00,41.5,37.3,30.26,North,5,5.0,6.0,85,0.00,,,0.06,Wunderground v.1.13,2013-01-02 16:42:00,
2013-01-02 10:52:00,41.6,37.4,30.26,North,360,4.0,5.0,85,0.00,,,0.07,Wunderground v.1.13,2013-01-02 16:52:00,
2013-01-02 11:02:00,41.4,37.2,30.25,NNE,15,5.0,5.0,85,0.00,,,0.07,Wunderground v.1.13,2013-01-02 17:02:00,
2013-01-02 11:12:00,41.5,37.3,30.26,North,5,4.0,5.0,85,0.00,,,0.07,Wunderground v.1.13,2013-01-02 17:12:00,
2013-01-02 11:22:00,41.5,37.6,30.25,North,5,3.0,3.0,86,0.00,,,0.07,Wunderground v.1.13,2013-01-02 17:22:00,
2013-01-02 11:32:00,41.7,37.8,30.25,North,360,3.0,4.0,86,0.00,,,0.07,Wunderground v.1.13,2013-01-02 17:32:00,
2013-01-02 11:42:00,41.6,37.7,30.25,North,355,3.0,4.0,86,0.00,,,0.07,Wunderground v.1.13,2013-01-02 17:42:00,
2013-01-02 11:52:00,41.5,37.6,30.25,North,355,3.0,4.0,86,0.00,,,0.07,Wunderground v.1.13,2013-01-02 17:52:00,
2013-01-02 12:02:00,41.5,37.6,30.24,North,355,3.0,3.0,86,0.00,,,0.07,Wunderground v.1.13,2013-01-02 18:02:00,
2013-01-02 12:12:00,41.6,37.7,30.24,North,355,3.0,3.0,86,0.00,,,0.08,Wunderground v.1.13,2013-01-02 18:12:00,
2013-01-02 12:22:00,41.7,37.8,30.25,North,355,3.0,4.0,86,0.00,,,0.08,Wunderground v.1.13,2013-01-02 18:22:00,
2013-01-02 12:32:00,41.8,37.9,30.24,NNW,340,4.0,4.0,86,0.00,,,0.09,Wunderground v.1.13,2013-01-02 18:32:00,
2013-01-02 12:42:00,41.9,38.0,30.23,NNW,342,3.0,3.0,86,0.00,,,0.09,Wunderground v.1.13,2013-01-02 18:42:00,
2013-01-02 12:52:00,42.0,38.1,30.24,NNW,344,4.0,4.0,86,0.00,,,0.10,Wunderground v.1.13,2013-01-02 18:52:00,
2013-01-02 13:02:00,42.2,38.3,30.23,NW,326,4.0,4.0,86,0.00,,,0.10,Wunderground v.1.13,2013-01-02 19:02:00,
2013-01-02 13:12:00,42.1,38.2,30.22,North,350,4.0,4.0,86,0.00,,,0.10,Wunderground v.1.13,2013-01-02 19:12:00,
2013-01-02 13:22:00,42.2,38.3,30.22,NNW,348,5.0,5.0,86,0.00,,,0.10,Wunderground v.1.13,2013-01-02 19:22:00,
2013-01-02 13:32:00,42.1,38.2,30.21,NNW,348,4.0,5.0,86,0.00,,,0.11,Wunderground v.1.13,2013-01-02 19:32:00,
2013-01-02 13:42:00,41.8,37.9,30.20,North,32767,4.0,4.0,86,0.00,,,0.11,Wunderground v.1.13,2013-01-02 19:42:00,
2013-01-02 13:52:00,41.7,37.8,30.19,North,349,5.0,5.0,86,0.00,,,0.11,Wunderground v.1.13,2013-01-02 19:52:00,
2013-01-02 14:02:00,41.8,37.9,30.19,NNW,348,5.0,5.0,86,0.00,,,0.11,Wunderground v.1.13,2013-01-02 20:02:00,
2013-01-02 14:12:00,41.9,38.0,30.19,North,355,5.0,7.0,86,0.00,,,0.11,Wunderground v.1.13,2013-01-02 20:12:00,
2013-01-02 14:22:00,41.8,37.9,30.18,North,360,4.0,4.0,86,0.00,,,0.11,Wunderground v.1.13,2013-01-02 20:22:00,
2013-01-02 14:32:00,41.8,37.9,30.18,North,10,3.0,7.0,86,0.00,,,0.12,Wunderground v.1.13,2013-01-02 20:32:00,
2013-01-02 14:42:00,41.6,37.7,30.17,North,5,4.0,9.0,86,0.00,,,0.12,Wunderground v.1.13,2013-01-02 20:42:00,
2013-01-02 14:52:00,41.6,37.7,30.17,NNW,344,5.0,5.0,86,0.00,,,0.13,Wunderground v.1.13,2013-01-02 20:52:00,
2013-01-02 15:02:00,41.8,37.9,30.17,North,5,4.0,5.0,86,0.00,,,0.13,Wunderground v.1.13,2013-01-02 21:02:00,
2013-01-02 15:12:00,41.8,38.2,30.18,North,355,6.0,11.0,87,0.00,,,0.14,Wunderground v.1.13,2013-01-02 21:12:00,
2013-01-02 15:22:00,41.7,38.1,30.18,North,5,6.0,6.0,87,0.00,,,0.14,Wunderground v.1.13,2013-01-02 21:22:00,
2013-01-02 15:37:00,41.9,38.3,30.18,North,5,6.0,6.0,87,0.00,,,0.15,Wunderground v.1.13,2013-01-02 21:37:00,
2013-01-02 15:42:00,42.0,38.4,30.18,NNW,348,4.0,12.0,87,0.00,,,0.15,Wunderground v.1.13,2013-01-02 21:42:00,
2013-01-02 15:52:00,41.8,38.2,30.18,North,32767,5.0,5.0,87,0.00,,,0.15,Wunderground v.1.13,2013-01-02 21:52:00,
2013-01-02 16:02:00,41.8,38.2,30.17,North,360,6.0,6.0,87,0.00,,,0.16,Wunderground v.1.13,2013-01-02 22:02:00,
2013-01-02 16:12:00,41.9,38.3,30.18,North,9,5.0,5.0,87,0.00,,,0.16,Wunderground v.1.13,2013-01-02 22:12:00,
2013-01-02 16:22:00,41.8,38.2,30.18,North,5,5.0,12.0,87,0.00,,,0.17,Wunderground v.1.13,2013-01-02 22:22:00,
2013-01-02 16:32:00,41.5,37.9,30.18,North,9,6.0,6.0,87,0.00,,,0.17,Wunderground v.1.13,2013-01-02 22:32:00,
2013-01-02 16:42:00,41.8,38.2,30.19,North,355,4.0,6.0,87,0.00,,,0.17,Wunderground v.1.13,2013-01-02 22:42:00,
2013-01-02 16:52:00,41.7,38.1,30.19,North,32767,4.0,4.0,87,0.00,,,0.18,Wunderground v.1.13,2013-01-02 22:52:00,
2013-01-02 17:03:00,41.7,38.1,30.20,North,350,4.0,6.0,87,0.00,,,0.18,Wunderground v.1.13,2013-01-02 23:03:00,
2013-01-02 17:12:00,41.8,38.2,30.20,North,355,5.0,5.0,87,0.00,,,0.19,Wunderground v.1.13,2013-01-02 23:12:00,
2013-01-02 17:23:00,41.6,38.0,30.20,North,5,5.0,7.0,87,0.00,,,0.19,Wunderground v.1.13,2013-01-02 23:23:00,
2013-01-02 17:32:00,41.6,38.0,30.20,North,5,5.0,5.0,87,0.00,,,0.19,Wunderground v.1.13,2013-01-02 23:32:00,
2013-01-02 17:43:00,41.5,37.9,30.20,North,360,5.0,6.0,87,0.00,,,0.19,Wunderground v.1.13,2013-01-02 23:43:00,
2013-01-02 17:52:00,41.5,37.9,30.21,North,355,3.0,4.0,87,0.00,,,0.20,Wunderground v.1.13,2013-01-02 23:52:00,
2013-01-02 18:03:00,41.5,37.9,30.21,North,360,3.0,5.0,87,0.00,,,0.20,Wunderground v.1.13,2013-01-03 00:03:00,
2013-01-02 18:13:00,41.6,38.0,30.22,North,5,5.0,5.0,87,0.00,,,0.20,Wunderground v.1.13,2013-01-03 00:13:00,
2013-01-02 18:22:00,41.8,38.2,30.23,North,5,4.0,7.0,87,0.00,,,0.21,Wunderground v.1.13,2013-01-03 00:22:00,
2013-01-02 18:33:00,41.9,38.3,30.23,North,355,3.0,3.0,87,0.00,,,0.21,Wunderground v.1.13,2013-01-03 00:33:00,
2013-01-02 18:42:00,41.8,38.2,30.24,North,32767,3.0,3.0,87,0.04,,,0.22,Wunderground v.1.13,2013-01-03 00:42:00,
2013-01-02 18:52:00,41.6,38.0,30.24,North,351,4.0,4.0,87,0.04,,,0.22,Wunderground v.1.13,2013-01-03 00:52:00,
2013-01-02 19:02:00,41.6,38.0,30.24,North,32767,1.0,1.0,87,0.04,,,0.23,Wunderground v.1.13,2013-01-03 01:02:00,
2013-01-02 19:12:00,41.4,37.8,30.23,North,32767,4.0,4.0,87,0.00,,,0.24,Wunderground v.1.13,2013-01-03 01:12:00,
2013-01-02 19:23:00,41.3,37.7,30.23,North,5,4.0,4.0,87,0.00,,,0.24,Wunderground v.1.13,2013-01-03 01:23:00,
2013-01-02 19:32:00,41.2,37.6,30.23,North,5,5.0,5.0,87,0.04,,,0.25,Wunderground v.1.13,2013-01-03 01:32:00,
2013-01-02 19:42:00,41.2,37.6,30.23,North,5,4.0,4.0,87,0.05,,,0.26,Wunderground v.1.13,2013-01-03 01:42:00,
2013-01-02 19:52:00,41.3,37.7,30.23,North,5,3.0,3.0,87,0.04,,,0.26,Wunderground v.1.13,2013-01-03 01:52:00,
2013-01-02 20:02:00,41.3,37.7,30.24,North,5,3.0,4.0,87,0.00,,,0.27,Wunderground v.1.13,2013-01-03 02:02:00,
2013-01-02 20:12:00,41.5,37.9,30.25,North,5,3.0,6.0,87,0.00,,,0.27,Wunderground v.1.13,2013-01-03 02:12:00,
2013-01-02 20:22:00,41.4,37.8,30.24,North,5,5.0,5.0,87,0.00,,,0.27,Wunderground v.1.13,2013-01-03 02:22:00,
2013-01-02 20:32:00,41.3,38.0,30.24,North,5,4.0,4.0,88,0.00,,,0.27,Wunderground v.1.13,2013-01-03 02:32:00,
2013-01-02 20:42:00,41.3,38.0,30.24,North,5,4.0,4.0,88,0.00,,,0.27,Wunderground v.1.13,2013-01-03 02:42:00,
2013-01-02 20:52:00,41.3,38.0,30.23,North,360,3.0,3.0,88,0.00,,,0.27,Wunderground v.1.13,2013-01-03 02:52:00,
2013-01-02 21:02:00,41.4,38.1,30.24,North,5,3.0,3.0,88,0.00,,,0.27,Wunderground v.1.13,2013-01-03 03:02:00,
2013-01-02 21:12:00,41.4,38.1,30.25,North,5,3.0,3.0,88,0.00,,,0.27,Wunderground v.1.13,2013-01-03 03:12:00,
2013-01-02 21:23:00,41.4,38.1,30.25,North,360,3.0,3.0,88,0.00,,,0.27,Wunderground v.1.13,2013-01-03 03:23:00,
2013-01-02 21:32:00,41.4,38.1,30.25,North,5,3.0,3.0,88,0.00,,,0.27,Wunderground v.1.13,2013-01-03 03:32:00,
2013-01-02 21:43:00,41.5,38.2,30.25,North,5,4.0,4.0,88,0.00,,,0.27,Wunderground v.1.13,2013-01-03 03:43:00,
2013-01-02 21:52:00,41.6,38.0,30.25,North,360,3.0,3.0,87,0.00,,,0.27,Wunderground v.1.13,2013-01-03 03:52:00,
2013-01-02 22:02:00,41.8,38.5,30.25,North,360,3.0,4.0,88,0.00,,,0.27,Wunderground v.1.13,2013-01-03 04:02:00,
2013-01-02 22:12:00,42.2,38.6,30.25,North,360,3.0,5.0,87,0.00,,,0.27,Wunderground v.1.13,2013-01-03 04:12:00,
2013-01-02 22:23:00,42.3,38.7,30.25,North,5,4.0,5.0,87,0.00,,,0.27,Wunderground v.1.13,2013-01-03 04:23:00,
2013-01-02 22:32:00,42.1,38.5,30.26,North,360,4.0,4.0,87,0.00,,,0.27,Wunderground v.1.13,2013-01-03 04:32:00,
2013-01-02 22:43:00,42.1,38.5,30.25,North,32767,2.0,2.0,87,0.00,,,0.27,Wunderground v.1.13,2013-01-03 04:43:00,
2013-01-02 22:52:00,42.2,38.6,30.25,North,355,4.0,5.0,87,0.00,,,0.27,Wunderground v.1.13,2013-01-03 04:52:00,
2013-01-02 23:07:00,42.4,38.5,30.25,North,32767,5.0,5.0,86,0.00,,,0.27,Wunderground v.1.13,2013-01-03 05:07:00,
2013-01-02 23:12:00,42.4,38.5,30.26,North,32767,3.0,3.0,86,0.00,,,0.27,Wunderground v.1.13,2013-01-03 05:12:00,
2013-01-02 23:17:00,42.5,38.6,30.25,North,355,2.0,6.0,86,0.00,,,0.27,Wunderground v.1.13,2013-01-03 05:17:00,
2013-01-02 23:22:00,42.5,38.6,30.25,North,32767,4.0,4.0,86,0.00,,,0.27,Wunderground v.1.13,2013-01-03 05:22:00,
2013-01-02 23:33:00,42.6,38.7,30.25,North,355,4.0,5.0,86,0.00,,,0.27,Wunderground v.1.13,2013-01-03 05:33:00,
2013-01-02 23:42:00,42.5,38.3,30.25,North,360,4.0,4.0,85,0.00,,,0.27,Wunderground v.1.13,2013-01-03 05:42:00,
2013-01-02 23:52:00,42.5,38.3,30.24,North,360,5.0,5.0,85,0.00,,,0.27,Wunderground v.1.13,2013-01-03 05:52:00,